EW3302 Weather Reports


Display with metric or nautical units.
time (UTC)temp
F
wind
direction
speed
MPH
gust
MPH
rain 1hr
in
rain 24hr
in
rain mn
in
humidity
%
barometer
mb
20260831172517 63 203 5.0 8.0 0.00 0.07 0.07 78 1004.5
20260831171537 63 203 5.0 10.0 0.00 0.07 0.07 78 1004.4
20260831170557 63 180 5.0 11.0 0.00 0.07 0.07 78 1004.2
20260831165517 64 180 4.0 9.0 0.00 0.07 0.07 78 1004.2
20260831164537 64 203 5.0 9.0 0.00 0.07 0.07 77 1004.1
20260831163517 64 203 7.0 11.0 0.00 0.07 0.07 76 1003.9
20260831162517 65 180 6.0 10.0 0.00 0.07 0.07 76 1004.0
20260831161516 65 180 6.0 12.0 0.00 0.07 0.07 75 1003.9
20260831160516 65 180 7.0 13.0 0.00 0.07 0.07 74 1003.9
20260831155557 66 180 6.0 13.0 0.00 0.07 0.07 74 1003.8
20260831154556 66 180 4.0 8.0 0.00 0.07 0.07 76 1003.8
20260831153517 66 180 5.0 10.0 0.00 0.07 0.07 75 1003.8
20260831152517 66 180 8.0 16.0 0.00 0.07 0.07 74 1003.7
20260831151536 66 180 5.0 12.0 0.00 0.07 0.07 75 1003.8
20260831150536 67 180 7.0 15.0 0.00 0.07 0.07 74 1003.8
20260831145516 66 158 6.0 11.0 0.00 0.07 0.07 75 1003.7
20260831144516 66 158 4.0 7.0 0.00 0.07 0.07 75 1003.8
20260831143516 67 180 5.0 10.0 0.00 0.07 0.07 74 1003.8
20260831142516 68 135 5.0 9.0 0.00 0.07 0.07 73 1003.8
20260831141516 67 180 7.0 12.0 0.00 0.07 0.07 75 1003.9
20260831140516 67 135 5.0 10.0 0.00 0.07 0.07 72 1003.9
20260831135516 67 203 4.0 8.0 0.00 0.07 0.07 74 1003.9
20260831134536 67 180 5.0 12.0 0.00 0.07 0.07 72 1003.9
20260831133517 67 180 5.0 9.0 0.00 0.07 0.07 70 1003.9
20260831132516 68 180 2.0 5.0 0.00 0.07 0.07 69 1003.8
20260831131516 67 248 4.0 9.0 0.00 0.07 0.07 68 1003.7
20260831130516 67 248 3.0 13.0 0.00 0.07 0.07 69 1003.6
20260831125517 67 248 4.0 8.0 0.00 0.07 0.07 66 1003.6
20260831124517 67 248 2.0 10.0 0.00 0.07 0.07 67 1003.6
20260831123536 67 270 3.0 6.0 0.00 0.07 0.07 69 1003.6
20260831122516 67 203 4.0 8.0 0.00 0.07 0.07 70 1003.5
20260831121516 66 225 3.0 5.0 0.00 0.07 0.07 73 1003.6
20260831120536 65 203 5.0 9.0 0.00 0.07 0.07 74 1003.6
20260831115517 65 203 4.0 7.0 0.00 0.07 0.07 76 1003.7
20260831114516 64 248 3.0 7.0 0.00 0.07 0.07 76 1003.7
20260831113516 64 248 4.0 8.0 0.00 0.07 0.07 76 1003.7
20260831112516 65 248 4.0 9.0 0.00 0.07 0.07 76 1003.7
20260831111516 65 203 5.0 10.0 0.00 0.07 0.07 77 1003.6
20260831110516 65 203 5.0 9.0 0.00 0.07 0.07 77 1003.5
20260831105516 65 180 4.0 9.0 0.00 0.07 0.07 77 1003.5
20260831104516 64 180 3.0 7.0 0.00 0.07 0.07 80 1003.5
20260831103516 64 135 3.0 6.0 0.00 0.07 0.07 80 1003.5
20260831102516 64 180 5.0 9.0 0.00 0.07 0.07 80 1003.5
20260831101516 64 203 5.0 8.0 0.00 0.07 0.07 80 1003.5
20260831100516 63 203 3.0 6.0 0.00 0.07 0.07 83 1003.5
20260831095536 63 158 3.0 7.0 0.00 0.07 0.07 83 1003.4
20260831094516 63 180 2.0 4.0 0.00 0.07 0.07 83 1003.4
20260831093516 63 135 3.0 7.0 0.00 0.07 0.07 82 1003.3
20260831092516 63 225 4.0 7.0 0.00 0.07 0.07 83 1003.3
20260831091516 62 203 2.0 4.0 0.00 0.07 0.07 84 1003.2
20260831090516 62 225 1.0 4.0 0.00 0.07 0.07 84 1003.3
20260831085516 62 203 2.0 4.0 0.00 0.07 0.07 85 1003.3
20260831084516 61 248 2.0 4.0 0.00 0.07 0.07 85 1003.3
20260831083516 61 203 3.0 7.0 0.00 0.07 0.07 86 1003.3
20260831082516 61 203 4.0 6.0 0.00 0.07 0.07 85 1003.2
20260831081516 61 203 5.0 9.0 0.00 0.07 0.07 84 1003.3
20260831080536 61 203 4.0 8.0 0.00 0.07 0.07 85 1003.2
20260831075516 61 203 5.0 9.0 0.00 0.07 0.07 86 1003.1
20260831074517 61 203 3.0 9.0 0.00 0.07 0.07 87 1003.1
20260831073516 61 203 4.0 9.0 0.00 0.07 0.07 89 1003.0
20260831072516 60 180 4.0 8.0 0.00 0.07 0.07 92 1002.9
20260831071516 59 203 3.0 6.0 0.00 0.07 0.07 92 1002.8
20260831070516 60 225 1.0 3.0 0.00 0.07 0.07 95 1002.7
20260831065516 60 225 3.0 5.0 0.00 0.07 0.07 95 1002.6
20260831064516 60 270 1.0 3.0 0.00 0.07 0.07 96 1002.6
20260831063536 60 225 1.0 3.0 0.00 0.07 0.07 96 1002.6
20260831062516 60 135 1.0 2.0 0.00 0.07 0.07 97 1002.6
20260831061516 59 0.0 1.0 0.00 0.07 0.07 97 1002.6
20260831060516 59 180 1.0 2.0 0.00 0.07 0.07 97 1002.5
20260831055516 59 0.0 1.0 0.00 0.07 0.07 97 1002.4
20260831054536 59 0.0 1.0 0.00 0.07 0.07 97 1002.4
20260831053516 58 0.0 0.0 0.00 0.07 0.07 96 1002.4
20260831052516 58 0.0 1.0 0.00 0.07 0.07 96 1002.4
20260831051516 58 0.0 1.0 0.00 0.07 0.07 96 1002.3
20260831050516 58 0.0 0.0 0.01 0.07 0.07 96 1002.3
20260831045516 58 0.0 1.0 0.01 0.07 0.07 96 1002.3
20260831044516 58 180 1.0 2.0 0.01 0.07 0.07 96 1002.3
20260831043516 57 0.0 1.0 0.01 0.07 0.07 96 1002.2
20260831042516 57 0.0 1.0 0.01 0.07 0.07 96 1002.2
20260831041516 57 0.0 0.0 0.01 0.07 0.07 96 1002.3
20260831040516 57 0.0 0.0 0.00 0.06 0.06 96 1002.2
20260831035536 57 0.0 1.0 0.00 0.06 0.06 96 1002.1
20260831034516 57 0.0 0.0 0.00 0.06 0.06 96 1002.1
20260831033516 57 0.0 0.0 0.00 0.06 0.06 96 1002.0
20260831032516 57 0.0 1.0 0.01 0.06 0.06 96 1001.9
20260831031516 57 0.0 0.0 0.02 0.06 0.06 96 1002.0
20260831030516 57 0.0 0.0 0.02 0.06 0.06 96 1002.0
20260831025536 57 0.0 0.0 0.02 0.06 0.06 96 1002.0
20260831024516 57 0.0 1.0 0.03 0.06 0.06 96 1002.0
20260831023516 57 0.0 0.0 0.04 0.06 0.06 96 1002.0
20260831022516 57 0.0 0.0 0.04 0.06 0.06 96 1002.0
20260831021536 57 0.0 1.0 0.03 0.05 0.05 96 1002.0
20260831020536 57 0.0 2.0 0.02 0.04 0.04 96 1002.1
20260831015516 57 0.0 2.0 0.02 0.04 0.04 96 1002.1
20260831014516 57 180 1.0 2.0 0.02 0.03 0.03 95 1002.0
20260831013516 57 0.0 0.0 0.02 0.03 0.02 96 1002.0
20260831012516 57 0.0 0.0 0.02 0.02 0.02 95 1002.0
20260831011516 57 0.0 0.0 0.02 0.02 0.02 96 1002.1
20260831010516 57 0.0 0.0 0.02 0.02 0.02 95 1002.1
20260831005516 57 0.0 1.0 0.02 0.02 0.02 95 1002.1
20260831004516 57 0.0 0.0 0.01 0.02 0.01 95 1002.2
20260831003516 57 0.0 0.0 0.01 0.02 0.01 95 1002.2
20260831002516 57 180 1.0 2.0 0.00 0.01 0.00 95 1002.2
20260831001516 57 180 1.0 2.0 0.00 0.01 0.00 95 1002.1
20260831000516 57 0.0 1.0 0.00 0.01 0.00 95 1002.2
20260830235516 57 0.0 0.0 0.00 0.01 0.00 95 1002.2
20260830234516 57 0.0 1.0 0.00 0.01 0.00 95 1002.2
20260830233516 57 0.0 0.0 0.00 0.01 0.00 95 1002.2
20260830232516 57 0.0 1.0 0.00 0.02 0.00 95 1002.2
20260830231516 57 0.0 0.0 0.00 0.02 0.00 95 1002.2
20260830230516 57 0.0 1.0 0.00 0.02 0.00 95 1002.1
20260830225516 57 0.0 1.0 0.00 0.02 0.00 95 1002.1
20260830224516 57 0.0 1.0 0.00 0.02 0.00 95 1002.1
20260830223536 57 0.0 2.0 0.00 0.02 0.00 95 1002.0
20260830222516 57 0.0 1.0 0.00 0.02 0.00 95 1002.0
20260830221516 57 0.0 0.0 0.00 0.02 0.00 94 1002.0
20260830220516 57 0.0 1.0 0.00 0.02 0.00 94 1002.0
20260830215517 57 158 1.0 2.0 0.00 0.02 0.02 94 1001.9
20260830214517 57 0.0 1.0 0.00 0.02 0.02 94 1001.9
20260830213517 57 0.0 1.0 0.00 0.02 0.02 94 1001.9
20260830212518 57 0.0 0.0 0.00 0.02 0.02 93 1001.9
20260830211517 57 158 1.0 2.0 0.00 0.02 0.02 93 1001.9
20260830210517 57 0.0 1.0 0.00 0.02 0.02 93 1002.0
20260830205517 57 0.0 2.0 0.00 0.02 0.02 92 1002.0
20260830204517 57 0.0 1.0 0.00 0.02 0.02 92 1002.0
20260830203517 58 158 1.0 2.0 0.00 0.02 0.02 91 1001.9
20260830202537 58 158 1.0 2.0 0.00 0.02 0.02 91 1002.0
20260830201537 59 158 1.0 2.0 0.00 0.02 0.02 91 1002.0
20260830200517 59 158 1.0 2.0 0.00 0.02 0.02 90 1002.0
20260830195517 60 158 1.0 2.0 0.00 0.02 0.02 89 1002.0
20260830194537 60 180 1.0 2.0 0.00 0.02 0.02 89 1001.9
20260830193517 60 158 1.0 2.0 0.00 0.02 0.02 88 1001.9
20260830192517 61 113 1.0 2.0 0.00 0.02 0.02 88 1001.9
20260830191517 61 135 2.0 4.0 0.00 0.02 0.02 88 1002.0
20260830190537 61 158 2.0 4.0 0.00 0.02 0.02 88 1002.0
20260830185517 61 135 2.0 3.0 0.00 0.02 0.02 87 1001.9
20260830184517 61 135 2.0 4.0 0.00 0.02 0.02 87 1002.0
20260830183517 62 135 2.0 4.0 0.00 0.02 0.02 85 1002.0
20260830182517 63 158 2.0 4.0 0.00 0.02 0.02 84 1002.0
20260830181537 63 135 3.0 5.0 0.00 0.02 0.02 84 1001.9
20260830180517 63 135 3.0 5.0 0.00 0.02 0.02 83 1001.9
20260830175517 64 135 2.0 5.0 0.00 0.02 0.02 82 1001.9
20260830174517 64 135 2.0 5.0 0.00 0.02 0.02 81 1001.8
20260830173517 65 135 4.0 6.0 0.00 0.02 0.02 80 1001.8